Location: Berg
(48.5667°N, 13.9833°E)
Time: 07:07:47
(UTC+00:00)

Mayak - Pass Details

Date: 09 April 2020
Orbit: 581 x 601 km, 97.5° (Epoch: 23 May)

Event Time Altitude Azimuth Distance (km) Brightness Sun altitude
Rises 20:24:59 0° 25° (NNE) 2,821 ? -23.4°
Reaches altitude 10° 20:27:35 10° 42° (NE) 1,912 ? -23.7°
Enters shadow 20:28:13 13° 48° (NE) 1,725 ? -23.8°
